Regional Weather Roundup
Issued by NWS

Home | Current Version | Previous Version | Graphics & Text | Print | Product List | Glossary On
Versions: 1 2 3 4 5 6 7 8 9 10 11 12 13 14 15 16 17 18 19 20 21 22 23 24 25 26 27 28 29 30 31 32 33 34 35 36 37 38 39 40 41 42 43 44 45 46 47 48 49 50
000
ASUS43 KLOT 260710
RWRIL

ILLINOIS REGIONAL WEATHER ROUNDUP
NATIONAL WEATHER SERVICE CHICAGO/ROMEOVILLE IL
100 AM CST FRI DEC 26 2014

NOTE: "FAIR" INDICATES FEW OR NO CLOUDS BELOW 12,000 FEET WITH NO
SIGNIFICANT WEATHER AND/OR OBSTRUCTIONS TO VISIBILITY.

* THESE STATIONS ARE NOT UNDER NWS QUALITY CONTROL. THEY ALSO MAY NOT
  REPORT WEATHER SUCH AS PRECIPITATION OR FOG.

ILZ001-002-007-009-015-016-024-260800-
NORTHWEST ILLINOIS

CITY           SKY/WX    TMP DP  RH WIND       PRES   REMARKS
MOLINE         CLOUDY    43  33  68 S15G23    29.90F
STERLING*      CLOUDY    41  34  75 SW3       29.94S
SAVANNA*       CLOUDY    39  34  82 S7        29.91F WCI  34
$$

ILZ003-004-008-010-011-017-018-260800-
NORTH CENTRAL ILLINOIS

CITY           SKY/WX    TMP DP  RH WIND       PRES   REMARKS
ROCKFORD       CLOUDY    37  33  85 S12       29.96F WCI  29
FREEPORT*      MOCLDY    37  34  88 S16       29.94S WCI  28
ROCHELLE*      CLOUDY    37  34  90 S13       29.96S WCI  28
DE KALB*       CLOUDY    35  33  90 S15       29.98S WCI  26
PERU*          MOCLDY    40  36  87 S15       29.98F
$$

ILZ005-006-012>014-019>023-260800-
NORTHEAST ILLINOIS

CITY           SKY/WX    TMP DP  RH WIND       PRES   REMARKS
CHICAGO-OHARE  MOCLDY    38  33  82 S14       30.00R WCI  30
CHICAGO-MIDWAY MOCLDY    40  33  76 S15       30.02S
AURORA         MOCLDY    37  32  82 S10       29.99S WCI  30
LANSING*       MOCLDY    36  32  86 S9        30.04S WCI  29
JOLIET*        MOCLDY    36  32  85 S6        30.02S WCI  32
WAUKEGAN       MOCLDY    39  33  79 S16G26    29.97S WCI  30
DUPAGE AIRPORT MOCLDY    37  33  85 S13       29.99S WCI  29
KANKAKEE*      PTCLDY    35  32  90 S8        30.05S WCI  28
WHEELING       PTCLDY    39  33  79 S13       30.01F WCI  31
MORRIS*        PTCLDY    34  33  96 S8        30.00S WCI  27
ROMEOVILLE*    MOCLDY    36  33  88 S12       30.01F WCI  28
NORTHERLY ISL    N/A     40  32  73 SW10        N/A
$$

LMZ740>746-260800-
SOUTHERN LAKE MICHIGAN

STATION/POSITION SKY/WX   TEMP    WIND        PRES    VSBY  WAVE
                          AIR SEA DIR/SP/G                  HT/PER
                          (F)     (DEG/KT/KT) (MB)    (MI)  (FT/S)
WAUKEGAN HARBOR            40                   N/A
HARRISON CRIB              40     190/ 24/ 30   N/A
BURNHAM HARBOR             40     200/  9/ 17   N/A
CALUMET HARBOR             39     170/ 11/ 15 1015.3F
MICHIGAN CITY              38     160/ 16/ 21   N/A
$$

ILZ025>027-034>036-040-047-049-050-058-095>099-260800-
WEST-CENTRAL ILLINOIS

CITY           SKY/WX    TMP DP  RH WIND       PRES   REMARKS
QUINCY         CLEAR     40  33  76 S10       29.94S
GALESBURG*     MOCLDY    39  35  84 S13G20    29.94S WCI  32
MACOMB*        CLEAR     37  34  88 S12       29.97F WCI  30
JACKSONVILLE*  CLEAR     40  36  86 SE7       30.00S
PITTSFIELD*    CLEAR     38  34  84 SE8       29.99R WCI  33
$$

ILZ028>032-037-038-041>044-048-051>054-059>061-260800-
CENTRAL ILLINOIS

CITY           SKY/WX    TMP DP  RH WIND       PRES   REMARKS
PONTIAC        CLEAR     36  33  90 S8        30.02S WCI  30
BLOOMINGTON    CLEAR     34  32  92 S13       30.03S WCI  25
DECATUR        CLEAR     37  32  82 S13       30.06R WCI  29
PEORIA         PTCLDY    39  34  82 S13       29.98F WCI  31
LACON*         MOCLDY    39  34  82 S9        29.97F WCI  33
LINCOLN*       CLEAR     38  34  84 S12       30.02F WCI  31
SPRINGFIELD    FAIR      41  34  76 S16       30.02F
TAYLORVILLE    CLEAR     37  32  81 S15       30.04S WCI  28
$$

ILZ033-039-045-046-055>057-062-063-260800-
EAST-CENTRAL ILLINOIS

CITY           SKY/WX    TMP DP  RH WIND       PRES   REMARKS
CHAMPAIGN      CLEAR     35  31  85 S12       30.06S WCI  27
DANVILLE*      FAIR      36  32  87 S10       30.06S WCI  28
RANTOUL*       CLEAR     34  32  94 SE8       30.06S WCI  27
MATTOON        CLEAR     38  33  82 S14       30.07R WCI  30
PARIS*         CLEAR     35  33  92 S9        30.10S WCI  28
$$

ILZ079-100>102-260800-
SOUTHWEST ILLINOIS

CITY           SKY/WX    TMP DP  RH WIND       PRES   REMARKS
ALTON          CLEAR     35  32  88 SE6       30.03S WCI  30
BELLEVILLE     CLEAR     40  37  89 SE9       30.04S
CAHOKIA*       CLEAR     37  33  85 SE7       30.03R WCI  32
SPARTA*        MOCLDY    42  35  75 S12G17    30.07R
$$

ILZ064>066-069>071-074>076-080>082-084>086-088>090-092>094-260800-
SOUTH-CENTRAL ILLINOIS

CITY           SKY/WX    TMP DP  RH WIND       PRES   REMARKS
CARBONDALE     MOCLDY    43  34  70 S12       30.08S
CAIRO*         CLEAR     44  36  73 S9        30.13S
EFFINGHAM*     CLEAR     38  31  74 SE7       30.11R WCI  33
MARION         PTCLDY    43  36  75 S17G24    30.10S
MT. VERNON     MOCLDY    39  30  70 S6        30.11R WCI  35
CENTRALIA*     PTCLDY    39  32  75 S9        30.08S WCI  33
SALEM*         PTCLDY    42  34  73 S6        30.09R
METROPOLIS*    CLEAR     43  36  76 S12       30.13S
$$

ILZ067-068-072-073-078-083-087-091-260800-
SOUTHEAST ILLINOIS

CITY           SKY/WX    TMP DP  RH WIND       PRES   REMARKS
LAWRENCEVILLE  CLEAR     35  32  88 S8        30.14R WCI  29
FLORA*         CLEAR     39  34  82 S8        30.10S WCI  33
FAIRFIELD*     MOCLDY    40  34  80 S8        30.11R
HARRISBURG*    MOCLDY    42  35  74 S10       30.14R
ROBINSON*      CLEAR     35  32  89 S6        30.14R WCI  30
CARMI*         MOCLDY    39  37  90 SE12      30.13S WCI  32
$$

ABBREVIATIONS USED IN REMARKS
   TC - TEMPERATURE IN CELSIUS
  WCI - WIND CHILL INDEX
   HX - HEAT INDEX
  VSB - VISIBILITY
$$




USA.gov is the U.S. government's official web portal to all federal, state and local government web resources and services.